Time,TemperatureF,DewpointF,PressureIn,WindDirection,WindDirectionDegrees,WindSpeedMPH,WindSpeedGustMPH,Humidity,HourlyPrecipIn,Conditions,Clouds,dailyrainin,SolarRadiationWatts/m^2,SoftwareType,DateUTC
2013-08-04 00:00:00,62.0,53.3,30.14,ESE,109,10.0,11.0,73,0.00,,CLR,0.00,0.00,VWS V14.00,2013-08-04 05:00:00,
2013-08-04 00:05:00,61.9,53.2,30.14,ESE,111,10.0,12.0,73,0.00,,CLR,0.00,0.00,VWS V14.00,2013-08-04 05:05:00,
2013-08-04 00:10:00,61.8,53.4,30.13,ESE,119,9.0,13.0,74,0.00,,CLR,0.00,0.00,VWS V14.00,2013-08-04 05:10:00,
2013-08-04 00:15:00,61.8,53.4,30.13,ESE,107,10.0,13.0,74,0.00,,CLR,0.00,0.00,VWS V14.00,2013-08-04 05:15:00,
2013-08-04 00:20:00,61.7,53.3,30.13,ESE,114,9.0,13.0,74,0.00,,CLR,0.00,0.00,VWS V14.00,2013-08-04 05:20:00,
2013-08-04 00:25:00,61.6,53.2,30.13,ESE,122,10.0,13.0,74,0.00,,CLR,0.00,0.00,VWS V14.00,2013-08-04 05:25:00,
2013-08-04 00:30:00,61.5,53.5,30.13,ESE,119,7.0,13.0,75,0.00,,CLR,0.00,0.00,VWS V14.00,2013-08-04 05:30:00,
2013-08-04 00:35:00,61.4,53.4,30.13,ESE,117,8.0,13.0,75,0.00,,CLR,0.00,0.00,VWS V14.00,2013-08-04 05:35:00,
2013-08-04 00:40:00,61.4,53.4,30.13,ESE,109,9.0,13.0,75,0.00,,CLR,0.00,0.00,VWS V14.00,2013-08-04 05:40:00,
2013-08-04 00:46:00,61.3,53.3,30.13,ESE,107,8.0,13.0,75,0.00,,CLR,0.00,0.00,VWS V14.00,2013-08-04 05:46:00,
2013-08-04 00:51:00,61.3,53.3,30.12,ESE,105,5.0,13.0,75,0.00,,CLR,0.00,0.00,VWS V14.00,2013-08-04 05:51:00,
2013-08-04 00:56:00,61.2,53.6,30.12,ESE,103,10.0,13.0,76,0.00,,CLR,0.00,0.00,VWS V14.00,2013-08-04 05:56:00,
2013-08-04 01:01:00,61.0,53.4,30.12,East,101,8.0,11.0,76,0.00,,CLR,0.00,0.00,VWS V14.00,2013-08-04 06:01:00,
2013-08-04 01:06:00,60.8,53.2,30.11,East,88,10.0,11.0,76,0.00,,CLR,0.00,0.00,VWS V14.00,2013-08-04 06:06:00,
2013-08-04 01:11:00,60.4,53.2,30.11,East,96,9.0,13.0,77,0.00,,CLR,0.00,0.00,VWS V14.00,2013-08-04 06:11:00,
2013-08-04 01:16:00,60.3,53.1,30.11,ESE,106,7.0,14.0,77,0.00,,CLR,0.00,0.00,VWS V14.00,2013-08-04 06:16:00,
2013-08-04 01:21:00,60.3,53.1,30.11,ESE,108,9.0,14.0,77,0.00,,CLR,0.00,0.00,VWS V14.00,2013-08-04 06:21:00,
2013-08-04 01:26:00,60.4,53.2,30.10,ESE,102,9.0,14.0,77,0.00,,CLR,0.00,0.00,VWS V14.00,2013-08-04 06:26:00,
2013-08-04 01:31:00,60.5,53.3,30.11,East,96,7.0,11.0,77,0.00,,CLR,0.00,0.00,VWS V14.00,2013-08-04 06:31:00,
2013-08-04 01:37:00,60.5,53.3,30.12,ESE,113,7.0,11.0,77,0.00,,CLR,0.00,0.00,VWS V14.00,2013-08-04 06:37:00,
2013-08-04 01:42:00,60.6,53.4,30.12,SE,126,7.0,13.0,77,0.00,,FEW120,0.00,0.00,VWS V14.00,2013-08-04 06:42:00,
2013-08-04 01:47:00,60.8,53.5,30.12,SE,136,7.0,13.0,77,0.00,,FEW120,0.00,0.00,VWS V14.00,2013-08-04 06:47:00,
2013-08-04 01:52:00,60.8,53.5,30.13,SE,133,4.0,13.0,77,0.00,,FEW120,0.00,0.00,VWS V14.00,2013-08-04 06:52:00,
2013-08-04 01:58:00,60.8,53.5,30.14,SE,129,6.0,13.0,77,0.00,,FEW120,0.00,0.00,VWS V14.00,2013-08-04 06:58:00,
2013-08-04 02:03:00,60.9,53.7,30.14,SE,131,6.0,9.0,77,0.00,,FEW120,0.00,0.00,VWS V14.00,2013-08-04 07:03:00,
2013-08-04 02:08:00,61.0,53.8,30.15,SE,132,4.0,9.0,77,0.00,,FEW120,0.00,0.00,VWS V14.00,2013-08-04 07:08:00,
2013-08-04 02:13:00,60.9,53.7,30.15,SE,132,5.0,9.0,77,0.00,,FEW120,0.00,0.00,VWS V14.00,2013-08-04 07:13:00,
2013-08-04 02:18:00,60.8,53.9,30.15,SE,134,4.0,9.0,78,0.00,,FEW120,0.00,0.00,VWS V14.00,2013-08-04 07:18:00,
2013-08-04 02:22:00,60.8,53.9,30.15,SE,140,8.0,10.0,78,0.00,,FEW120,0.00,0.00,VWS V14.00,2013-08-04 07:22:00,
2013-08-04 02:28:00,60.8,53.9,30.15,SE,137,4.0,10.0,78,0.00,,FEW120,0.00,0.00,VWS V14.00,2013-08-04 07:28:00,
2013-08-04 02:33:00,60.7,53.8,30.14,SE,132,7.0,9.0,78,0.00,,FEW120,0.00,0.00,VWS V14.00,2013-08-04 07:33:00,
2013-08-04 02:38:00,60.6,53.7,30.13,SE,133,7.0,10.0,78,0.00,,FEW120,0.00,0.00,VWS V14.00,2013-08-04 07:38:00,
2013-08-04 02:43:00,60.6,53.7,30.13,SE,133,6.0,10.0,78,0.00,,CLR,0.00,0.00,VWS V14.00,2013-08-04 07:43:00,
2013-08-04 02:48:00,60.6,53.7,30.12,SE,131,8.0,10.0,78,0.00,,CLR,0.00,0.00,VWS V14.00,2013-08-04 07:48:00,
2013-08-04 02:53:00,60.5,53.6,30.11,SE,132,6.0,10.0,78,0.00,,CLR,0.00,0.00,VWS V14.00,2013-08-04 07:53:00,
2013-08-04 02:58:00,60.6,53.7,30.11,SE,132,7.0,10.0,78,0.00,,CLR,0.00,0.00,VWS V14.00,2013-08-04 07:58:00,
2013-08-04 03:03:00,60.7,53.8,30.11,SE,132,7.0,11.0,78,0.00,,CLR,0.00,0.00,VWS V14.00,2013-08-04 08:03:00,
2013-08-04 03:08:00,60.8,53.5,30.11,SE,132,6.0,11.0,77,0.00,,CLR,0.00,0.00,VWS V14.00,2013-08-04 08:08:00,
2013-08-04 03:13:00,60.8,53.5,30.11,SE,134,9.0,11.0,77,0.00,,CLR,0.00,0.00,VWS V14.00,2013-08-04 08:13:00,
2013-08-04 03:19:00,60.8,53.5,30.10,SE,136,6.0,11.0,77,0.00,,CLR,0.00,0.00,VWS V14.00,2013-08-04 08:19:00,
2013-08-04 03:24:00,60.6,53.7,30.09,SE,142,10.0,13.0,78,0.00,,CLR,0.00,0.00,VWS V14.00,2013-08-04 08:24:00,
2013-08-04 03:29:00,60.1,53.9,30.08,SE,132,12.0,14.0,80,0.00,,CLR,0.00,0.00,VWS V14.00,2013-08-04 08:29:00,
2013-08-04 03:34:00,59.7,53.9,30.02,ESE,123,25.0,25.0,81,0.00,,CLR,0.00,0.00,VWS V14.00,2013-08-04 08:34:00,
2013-08-04 03:39:00,59.9,53.7,30.02,SE,130,13.0,25.0,80,0.00,,CLR,0.00,0.00,VWS V14.00,2013-08-04 08:39:00,
2013-08-04 03:44:00,59.8,54.0,30.02,SSE,151,14.0,25.0,81,0.00,,-RA,0.00,0.00,VWS V14.00,2013-08-04 08:44:00,
2013-08-04 03:49:00,59.6,53.8,30.01,SE,144,13.0,25.0,81,0.00,,-RA,0.00,0.00,VWS V14.00,2013-08-04 08:49:00,
2013-08-04 03:54:00,59.5,53.7,30.02,SSE,161,14.0,25.0,81,0.00,,-RA,0.00,0.00,VWS V14.00,2013-08-04 08:54:00,
2013-08-04 03:59:00,59.4,53.2,30.02,SE,133,13.0,25.0,80,0.00,,-RA,0.00,0.00,VWS V14.00,2013-08-04 08:59:00,
2013-08-04 04:04:00,59.3,53.1,30.01,SE,143,15.0,20.0,80,0.00,,-RA,0.00,0.00,VWS V14.00,2013-08-04 09:04:00,
2013-08-04 04:09:00,59.3,52.8,30.02,SSE,155,18.0,25.0,79,0.00,,-RA,0.00,0.00,VWS V14.00,2013-08-04 09:09:00,
2013-08-04 04:14:00,59.7,52.5,30.02,SE,137,21.0,25.0,77,0.00,,-RA,0.00,0.00,VWS V14.00,2013-08-04 09:14:00,
2013-08-04 04:19:00,59.8,52.6,30.02,South,169,16.0,25.0,77,0.00,,-RA,0.00,0.00,VWS V14.00,2013-08-04 09:19:00,
2013-08-04 04:24:00,59.6,52.7,30.02,SSE,163,13.0,25.0,78,0.00,,-RA,0.00,0.00,VWS V14.00,2013-08-04 09:24:00,
2013-08-04 04:29:00,59.5,53.0,30.03,SSE,164,18.0,25.0,79,0.00,,-RA,0.00,0.00,VWS V14.00,2013-08-04 09:29:00,
2013-08-04 04:34:00,59.7,53.5,30.03,SSE,163,11.0,22.0,80,0.00,,-RA,0.00,0.00,VWS V14.00,2013-08-04 09:34:00,
2013-08-04 04:39:00,59.7,53.9,30.03,South,173,13.0,22.0,81,0.00,,-RA,0.00,0.00,VWS V14.00,2013-08-04 09:39:00,
2013-08-04 04:44:00,59.6,54.4,30.03,SSE,158,12.0,22.0,83,0.00,,-RA,0.00,0.00,VWS V14.00,2013-08-04 09:44:00,
2013-08-04 04:49:00,59.6,54.4,30.03,SSE,155,17.0,22.0,83,0.00,,-RA,0.00,0.00,VWS V14.00,2013-08-04 09:49:00,
2013-08-04 04:54:00,59.7,54.9,30.04,South,171,9.0,22.0,84,0.00,,-RA,0.00,0.00,VWS V14.00,2013-08-04 09:54:00,
2013-08-04 04:59:00,59.7,54.9,30.04,SSE,161,14.0,22.0,84,0.00,,-RA,0.00,0.00,VWS V14.00,2013-08-04 09:59:00,
2013-08-04 05:04:00,59.6,54.8,30.03,SE,146,10.0,15.0,84,0.00,,-RA,0.00,0.00,VWS V14.00,2013-08-04 10:04:00,
2013-08-04 05:10:00,59.5,55.0,30.03,SSE,158,10.0,15.0,85,0.00,,-RA,0.00,0.00,VWS V14.00,2013-08-04 10:10:00,
2013-08-04 05:15:00,59.3,55.1,30.04,SE,136,9.0,15.0,86,0.00,,-RA,0.00,0.00,VWS V14.00,2013-08-04 10:15:00,
2013-08-04 05:20:00,59.2,55.0,30.03,SE,126,10.0,15.0,86,0.00,,-RA,0.00,0.00,VWS V14.00,2013-08-04 10:20:00,
2013-08-04 05:25:00,59.1,55.2,30.03,SE,143,8.0,15.0,87,0.00,,-RA,0.00,0.00,VWS V14.00,2013-08-04 10:25:00,
2013-08-04 05:30:00,59.1,55.2,30.03,SE,142,7.0,10.0,87,0.00,,-RA,0.00,0.00,VWS V14.00,2013-08-04 10:30:00,
2013-08-04 05:35:00,59.3,55.4,30.03,SE,137,8.0,14.0,87,0.00,,-RA,0.00,0.00,VWS V14.00,2013-08-04 10:35:00,
2013-08-04 05:40:00,59.2,55.3,30.03,SE,128,14.0,14.0,87,0.00,,-RA,0.00,0.00,VWS V14.00,2013-08-04 10:40:00,
2013-08-04 05:45:00,59.1,55.2,30.03,ESE,119,8.0,15.0,87,0.00,,FEW017,0.00,0.00,VWS V14.00,2013-08-04 10:45:00,
2013-08-04 05:50:00,59.1,55.5,30.03,SE,129,8.0,15.0,88,0.00,,FEW017,0.00,0.00,VWS V14.00,2013-08-04 10:50:00,
2013-08-04 05:55:00,59.1,55.5,30.03,ESE,122,9.0,15.0,88,0.00,,FEW017,0.00,0.00,VWS V14.00,2013-08-04 10:55:00,
2013-08-04 06:00:00,59.1,55.5,30.04,ESE,110,7.0,10.0,88,0.00,,FEW017,0.00,0.00,VWS V14.00,2013-08-04 11:00:00,
2013-08-04 06:05:00,59.1,55.5,30.03,ESE,106,8.0,11.0,88,0.00,,FEW017,0.00,0.00,VWS V14.00,2013-08-04 11:05:00,
2013-08-04 06:10:00,59.2,55.7,30.04,SE,127,10.0,13.0,88,0.00,,FEW017,0.00,0.00,VWS V14.00,2013-08-04 11:10:00,
2013-08-04 06:15:00,59.3,55.8,30.04,ESE,123,10.0,13.0,88,0.00,,FEW017,0.00,0.00,VWS V14.00,2013-08-04 11:15:00,
2013-08-04 06:20:00,59.4,55.8,30.04,SE,134,9.0,13.0,88,0.00,,FEW017,0.00,0.00,VWS V14.00,2013-08-04 11:20:00,
2013-08-04 06:25:00,59.5,56.0,30.04,ESE,120,7.0,13.0,88,0.00,,FEW017,0.00,0.00,VWS V14.00,2013-08-04 11:25:00,
2013-08-04 06:30:00,59.5,56.0,30.05,ESE,111,3.0,9.0,88,0.00,,FEW017,0.00,0.00,VWS V14.00,2013-08-04 11:30:00,
2013-08-04 06:35:00,59.5,56.0,30.05,ESE,121,9.0,10.0,88,0.00,,FEW017,0.00,5.00,VWS V14.00,2013-08-04 11:35:00,
2013-08-04 06:40:00,59.6,56.0,30.05,SE,128,5.0,13.0,88,0.00,,BKN018,0.00,7.00,VWS V14.00,2013-08-04 11:40:00,
2013-08-04 06:46:00,59.6,55.7,30.05,SE,125,6.0,13.0,87,0.00,,BKN018,0.00,9.00,VWS V14.00,2013-08-04 11:46:00,
2013-08-04 06:50:00,59.6,55.7,30.05,ESE,116,5.0,13.0,87,0.00,,BKN018,0.00,14.00,VWS V14.00,2013-08-04 11:50:00,
2013-08-04 06:56:00,59.6,55.7,30.05,ESE,121,9.0,13.0,87,0.00,,BKN018,0.00,18.00,VWS V14.00,2013-08-04 11:56:00,
2013-08-04 07:01:00,59.6,55.7,30.04,ESE,120,9.0,11.0,87,0.00,,BKN018,0.00,23.00,VWS V14.00,2013-08-04 12:01:00,
2013-08-04 07:06:00,59.4,55.5,30.05,ESE,121,8.0,11.0,87,0.00,,BKN018,0.00,28.00,VWS V14.00,2013-08-04 12:06:00,
2013-08-04 07:11:00,59.4,55.8,30.04,ESE,119,10.0,11.0,88,0.00,,BKN018,0.00,28.00,VWS V14.00,2013-08-04 12:11:00,
2013-08-04 07:16:00,59.5,55.6,30.05,SE,124,7.0,12.0,87,0.00,,BKN018,0.00,33.00,VWS V14.00,2013-08-04 12:16:00,
2013-08-04 07:21:00,59.6,55.7,30.05,SE,133,7.0,12.0,87,0.00,,BKN018,0.00,26.00,VWS V14.00,2013-08-04 12:21:00,
2013-08-04 07:26:00,59.7,55.8,30.05,SE,134,10.0,12.0,87,0.00,,BKN018,0.00,30.00,VWS V14.00,2013-08-04 12:26:00,
2013-08-04 07:31:00,59.8,55.9,30.05,SE,139,5.0,10.0,87,0.00,,BKN018,0.00,26.00,VWS V14.00,2013-08-04 12:31:00,
2013-08-04 07:36:00,59.8,55.9,30.05,ESE,109,7.0,12.0,87,0.00,,BKN018,0.00,30.00,VWS V14.00,2013-08-04 12:36:00,
2013-08-04 07:41:00,59.8,55.9,30.05,ESE,118,9.0,12.0,87,0.00,,BKN018,0.00,33.00,VWS V14.00,2013-08-04 12:41:00,
2013-08-04 07:46:00,59.9,56.0,30.05,ESE,123,9.0,14.0,87,0.00,,BKN018,0.00,35.00,VWS V14.00,2013-08-04 12:46:00,
2013-08-04 07:51:00,59.9,56.0,30.05,SE,136,11.0,14.0,87,0.00,,OVC016,0.00,33.00,VWS V14.00,2013-08-04 12:51:00,
2013-08-04 07:56:00,60.1,55.9,30.05,SE,144,8.0,14.0,86,0.00,,OVC016,0.00,67.00,VWS V14.00,2013-08-04 12:56:00,
2013-08-04 08:03:00,60.4,56.2,30.05,SE,145,8.0,15.0,86,0.00,,OVC016,0.00,74.00,VWS V14.00,2013-08-04 13:03:00,
2013-08-04 08:08:00,60.6,56.1,30.05,SE,136,12.0,15.0,85,0.00,,OVC016,0.00,63.00,VWS V14.00,2013-08-04 13:08:00,
2013-08-04 08:13:00,60.7,56.2,30.05,SE,126,12.0,15.0,85,0.00,,OVC016,0.00,86.00,VWS V14.00,2013-08-04 13:13:00,
2013-08-04 08:18:00,60.7,56.2,30.05,ESE,118,15.0,16.0,85,0.00,,OVC016,0.00,206.00,VWS V14.00,2013-08-04 13:18:00,
2013-08-04 08:23:00,60.9,56.4,30.04,SE,132,7.0,16.0,85,0.00,,OVC016,0.00,155.00,VWS V14.00,2013-08-04 13:23:00,
2013-08-04 08:28:00,61.6,56.7,30.04,SE,129,11.0,16.0,84,0.00,,OVC016,0.00,185.00,VWS V14.00,2013-08-04 13:28:00,
2013-08-04 08:33:00,62.1,56.9,30.04,SE,134,9.0,16.0,83,0.00,,OVC016,0.00,269.00,VWS V14.00,2013-08-04 13:33:00,
2013-08-04 08:38:00,62.5,56.9,30.04,SE,134,11.0,17.0,82,0.00,,OVC016,0.00,237.00,VWS V14.00,2013-08-04 13:38:00,
2013-08-04 08:43:00,62.6,57.4,30.04,ESE,121,14.0,17.0,83,0.00,,SCT022,0.00,181.00,VWS V14.00,2013-08-04 13:43:00,
2013-08-04 08:48:00,62.3,56.7,30.05,SE,140,10.0,17.0,82,0.00,,SCT022,0.00,88.00,VWS V14.00,2013-08-04 13:48:00,
2013-08-04 08:53:00,62.0,56.8,30.05,SSE,168,9.0,18.0,83,0.00,,BKN018,0.00,56.00,VWS V14.00,2013-08-04 13:53:00,
2013-08-04 08:58:00,61.8,56.6,30.05,SE,133,11.0,18.0,83,0.00,,BKN018,0.00,56.00,VWS V14.00,2013-08-04 13:58:00,
2013-08-04 09:03:00,61.7,56.8,30.05,SSE,155,9.0,14.0,84,0.00,,BKN018,0.00,56.00,VWS V14.00,2013-08-04 14:03:00,
2013-08-04 09:08:00,61.6,56.4,30.05,South,169,13.0,19.0,83,0.00,,BKN018,0.00,30.00,VWS V14.00,2013-08-04 14:08:00,
2013-08-04 09:14:00,61.4,56.5,30.05,SE,146,15.0,19.0,84,0.00,,BKN018,0.00,70.00,VWS V14.00,2013-08-04 14:14:00,
2013-08-04 09:19:00,61.5,56.6,30.06,SSE,165,9.0,19.0,84,0.00,,BKN018,0.00,65.00,VWS V14.00,2013-08-04 14:19:00,
2013-08-04 09:23:00,61.5,56.6,30.06,SSE,166,12.0,20.0,84,0.00,,BKN018,0.00,91.00,VWS V14.00,2013-08-04 14:23:00,
2013-08-04 09:29:00,61.6,56.7,30.06,SSE,160,12.0,20.0,84,0.00,,BKN018,0.00,93.00,VWS V14.00,2013-08-04 14:29:00,
2013-08-04 09:34:00,61.5,56.6,30.06,SSE,166,11.0,18.0,84,0.00,,BKN018,0.00,91.00,VWS V14.00,2013-08-04 14:34:00,
2013-08-04 09:39:00,61.5,57.0,30.06,SSE,161,15.0,18.0,85,0.00,,BKN018,0.00,102.00,VWS V14.00,2013-08-04 14:39:00,
2013-08-04 09:44:00,61.6,57.0,30.06,SSE,163,10.0,18.0,85,0.00,,BKN016,0.00,132.00,VWS V14.00,2013-08-04 14:44:00,
2013-08-04 09:49:00,62.0,57.1,30.05,SSE,150,10.0,18.0,84,0.00,,BKN016,0.00,174.00,VWS V14.00,2013-08-04 14:49:00,
2013-08-04 09:54:00,62.1,57.2,30.05,SSE,151,15.0,18.0,84,0.00,,BKN016,0.00,209.00,VWS V14.00,2013-08-04 14:54:00,
2013-08-04 09:59:00,62.3,57.4,30.05,SE,144,11.0,18.0,84,0.00,,BKN016,0.00,309.00,VWS V14.00,2013-08-04 14:59:00,
2013-08-04 10:04:00,62.7,57.5,30.05,SSE,166,11.0,14.0,83,0.00,,BKN016,0.00,281.00,VWS V14.00,2013-08-04 15:04:00,
2013-08-04 10:09:00,63.0,57.4,30.05,SSE,155,17.0,18.0,82,0.00,,BKN016,0.00,258.00,VWS V14.00,2013-08-04 15:09:00,
2013-08-04 10:14:00,63.2,58.0,30.05,SSE,160,11.0,18.0,83,0.00,,BKN016,0.00,399.00,VWS V14.00,2013-08-04 15:14:00,
2013-08-04 10:19:00,63.7,57.8,30.05,SE,142,20.0,20.0,81,0.00,,BKN016,0.00,345.00,VWS V14.00,2013-08-04 15:19:00,
2013-08-04 10:24:00,63.6,57.7,30.05,SSE,153,9.0,20.0,81,0.00,,BKN016,0.00,346.00,VWS V14.00,2013-08-04 15:24:00,
2013-08-04 10:29:00,63.9,58.0,30.04,South,180,13.0,20.0,81,0.00,,BKN016,0.00,336.00,VWS V14.00,2013-08-04 15:29:00,
2013-08-04 10:34:00,64.5,58.5,30.05,South,190,12.0,18.0,81,0.00,,BKN016,0.00,475.00,VWS V14.00,2013-08-04 15:34:00,
2013-08-04 10:40:00,65.2,58.5,30.04,South,169,14.0,19.0,79,0.00,,BKN016,0.00,482.00,VWS V14.00,2013-08-04 15:40:00,
2013-08-04 10:45:00,65.6,58.6,30.04,SSE,157,15.0,21.0,78,0.00,,OVC026,0.00,413.00,VWS V14.00,2013-08-04 15:45:00,
2013-08-04 10:50:00,66.4,59.0,30.03,South,175,12.0,22.0,77,0.00,,OVC026,0.00,733.00,VWS V14.00,2013-08-04 15:50:00,
2013-08-04 10:55:00,66.2,58.4,30.03,SSE,165,11.0,22.0,76,0.00,,BKN055,0.00,334.00,VWS V14.00,2013-08-04 15:55:00,
2013-08-04 11:00:00,65.8,58.4,30.03,SSE,163,8.0,14.0,77,0.00,,BKN055,0.00,306.00,VWS V14.00,2013-08-04 16:00:00,
2013-08-04 11:05:00,65.6,58.2,30.03,South,173,12.0,18.0,77,0.00,,BKN055,0.00,179.00,VWS V14.00,2013-08-04 16:05:00,
2013-08-04 11:10:00,65.2,58.2,30.03,SSE,165,11.0,18.0,78,0.00,,BKN055,0.00,125.00,VWS V14.00,2013-08-04 16:10:00,
2013-08-04 11:15:00,64.9,57.9,30.03,South,170,13.0,20.0,78,0.00,,BKN055,0.00,121.00,VWS V14.00,2013-08-04 16:15:00,
2013-08-04 11:20:00,65.1,58.1,30.03,South,178,10.0,20.0,78,0.00,,BKN055,0.00,162.00,VWS V14.00,2013-08-04 16:20:00,
2013-08-04 11:25:00,65.3,58.3,30.03,South,173,13.0,20.0,78,0.00,,BKN055,0.00,171.00,VWS V14.00,2013-08-04 16:25:00,
2013-08-04 11:30:00,65.6,58.2,30.03,South,182,13.0,14.0,77,0.00,,BKN055,0.00,151.00,VWS V14.00,2013-08-04 16:30:00,
2013-08-04 11:35:00,65.9,57.8,30.03,South,190,10.0,18.0,75,0.00,,BKN055,0.00,149.00,VWS V14.00,2013-08-04 16:35:00,
2013-08-04 11:40:00,66.1,57.6,30.03,SSE,166,14.0,18.0,74,0.00,,BKN055,0.00,151.00,VWS V14.00,2013-08-04 16:40:00,
2013-08-04 11:45:00,66.1,57.2,30.02,South,176,5.0,18.0,73,0.00,,BKN055,0.00,141.00,VWS V14.00,2013-08-04 16:45:00,
2013-08-04 11:50:00,66.2,57.3,30.02,SSE,162,14.0,18.0,73,0.00,,BKN055,0.00,135.00,VWS V14.00,2013-08-04 16:50:00,
2013-08-04 11:55:00,66.2,57.3,30.02,South,190,9.0,18.0,73,0.00,,BKN055,0.00,139.00,VWS V14.00,2013-08-04 16:55:00,
2013-08-04 12:01:00,66.2,57.3,30.02,South,190,13.0,15.0,73,0.00,,BKN055,0.00,130.00,VWS V14.00,2013-08-04 17:01:00,
2013-08-04 12:06:00,66.2,56.9,30.02,South,171,12.0,20.0,72,0.00,,BKN055,0.00,141.00,VWS V14.00,2013-08-04 17:06:00,
2013-08-04 12:11:00,66.2,56.9,30.02,South,189,13.0,20.0,72,0.00,,BKN055,0.00,146.00,VWS V14.00,2013-08-04 17:11:00,
2013-08-04 12:16:00,66.2,56.9,30.02,South,191,7.0,20.0,72,0.00,,BKN055,0.00,148.00,VWS V14.00,2013-08-04 17:16:00,
2013-08-04 12:21:00,66.1,56.4,30.02,SSE,158,12.0,20.0,71,0.00,,BKN055,0.00,160.00,VWS V14.00,2013-08-04 17:21:00,
2013-08-04 12:26:00,66.2,56.5,30.01,SSW,197,16.0,20.0,71,0.00,,BKN055,0.00,171.00,VWS V14.00,2013-08-04 17:26:00,
2013-08-04 12:31:00,66.2,56.9,30.01,South,171,8.0,18.0,72,0.00,,BKN055,0.00,176.00,VWS V14.00,2013-08-04 17:31:00,
2013-08-04 12:36:00,66.3,57.0,30.01,South,186,7.0,18.0,72,0.00,,BKN055,0.00,178.00,VWS V14.00,2013-08-04 17:36:00,
2013-08-04 12:41:00,66.5,57.6,30.01,South,179,8.0,18.0,73,0.00,,OVC028,0.00,188.00,VWS V14.00,2013-08-04 17:41:00,
2013-08-04 12:47:00,66.5,57.2,30.01,South,187,9.0,18.0,72,0.00,,OVC028,0.00,178.00,VWS V14.00,2013-08-04 17:47:00,
2013-08-04 12:51:00,66.5,57.2,30.01,SSW,198,12.0,18.0,72,0.00,,OVC028,0.00,186.00,VWS V14.00,2013-08-04 17:51:00,
2013-08-04 12:57:00,66.3,57.0,30.01,South,191,13.0,18.0,72,0.00,,OVC028,0.00,197.00,VWS V14.00,2013-08-04 17:57:00,
2013-08-04 13:02:00,66.2,56.9,30.01,SSW,196,7.0,15.0,72,0.00,,OVC028,0.00,193.00,VWS V14.00,2013-08-04 18:02:00,
2013-08-04 13:07:00,66.3,57.0,30.01,South,175,14.0,15.0,72,0.00,,OVC028,0.00,186.00,VWS V14.00,2013-08-04 18:07:00,
2013-08-04 13:12:00,66.2,57.3,30.01,SSW,207,7.0,16.0,73,0.00,,OVC028,0.00,185.00,VWS V14.00,2013-08-04 18:12:00,
2013-08-04 13:17:00,66.1,57.2,30.01,South,190,12.0,16.0,73,0.00,,OVC028,0.00,165.00,VWS V14.00,2013-08-04 18:17:00,
2013-08-04 13:21:00,66.0,57.5,30.01,South,176,13.0,16.0,74,0.00,,OVC028,0.00,172.00,VWS V14.00,2013-08-04 18:21:00,
2013-08-04 13:27:00,66.1,57.6,30.00,SSE,162,8.0,16.0,74,0.00,,OVC028,0.00,172.00,VWS V14.00,2013-08-04 18:27:00,
2013-08-04 13:32:00,66.1,57.6,30.00,SSE,168,8.0,13.0,74,0.00,,OVC028,0.00,185.00,VWS V14.00,2013-08-04 18:32:00,
2013-08-04 13:37:00,66.4,58.2,30.00,South,191,7.0,13.0,75,0.00,,OVC028,0.00,250.00,VWS V14.00,2013-08-04 18:37:00,
2013-08-04 13:42:00,66.8,58.3,30.00,South,188,11.0,13.0,74,0.00,,OVC027,0.00,304.00,VWS V14.00,2013-08-04 18:42:00,
2013-08-04 13:47:00,67.1,58.2,30.00,South,179,6.0,14.0,73,0.00,,OVC027,0.00,350.00,VWS V14.00,2013-08-04 18:47:00,
2013-08-04 13:52:00,67.5,58.5,30.00,South,186,12.0,16.0,73,0.00,,OVC027,0.00,367.00,VWS V14.00,2013-08-04 18:52:00,
2013-08-04 13:57:00,67.6,58.3,29.99,South,184,14.0,16.0,72,0.00,,OVC027,0.00,432.00,VWS V14.00,2013-08-04 18:57:00,
2013-08-04 14:02:00,68.0,58.7,29.99,SSW,203,11.0,14.0,72,0.00,,OVC027,0.00,424.00,VWS V14.00,2013-08-04 19:02:00,
2013-08-04 14:07:00,68.1,58.7,29.99,SSW,203,10.0,17.0,72,0.00,,OVC027,0.00,408.00,VWS V14.00,2013-08-04 19:07:00,
2013-08-04 14:12:00,68.5,59.1,29.99,SSW,196,9.0,18.0,72,0.00,,OVC027,0.00,670.00,VWS V14.00,2013-08-04 19:12:00,
2013-08-04 14:17:00,69.2,59.8,29.99,SSE,159,13.0,18.0,72,0.00,,OVC027,0.00,708.00,VWS V14.00,2013-08-04 19:17:00,
2013-08-04 14:22:00,69.7,59.9,29.98,SSE,153,12.0,18.0,71,0.00,,OVC027,0.00,708.00,VWS V14.00,2013-08-04 19:22:00,
2013-08-04 14:27:00,70.8,60.1,29.99,SSE,162,8.0,18.0,69,0.00,,OVC027,0.00,1088.00,VWS V14.00,2013-08-04 19:27:00,
2013-08-04 14:32:00,70.9,60.6,29.98,SSW,202,13.0,18.0,70,0.00,,OVC027,0.00,457.00,VWS V14.00,2013-08-04 19:32:00,
2013-08-04 14:38:00,71.1,60.0,29.98,South,174,8.0,18.0,68,0.00,,OVC027,0.00,554.00,VWS V14.00,2013-08-04 19:38:00,
2013-08-04 14:43:00,70.2,60.0,29.98,South,173,11.0,18.0,70,0.00,,OVC024,0.00,424.00,VWS V14.00,2013-08-04 19:43:00,
2013-08-04 14:48:00,70.1,60.3,29.98,South,188,12.0,18.0,71,0.00,,OVC024,0.00,478.00,VWS V14.00,2013-08-04 19:48:00,
2013-08-04 14:53:00,70.8,60.5,29.98,SSW,198,6.0,18.0,70,0.00,,OVC024,0.00,1014.00,VWS V14.00,2013-08-04 19:53:00,
2013-08-04 14:58:00,71.7,61.8,29.98,SSW,209,8.0,18.0,71,0.00,,OVC024,0.00,1048.00,VWS V14.00,2013-08-04 19:58:00,
2013-08-04 15:03:00,71.7,60.6,29.98,SSW,193,10.0,15.0,68,0.00,,OVC024,0.00,381.00,VWS V14.00,2013-08-04 20:03:00,
2013-08-04 15:08:00,72.2,61.5,29.97,SSE,163,12.0,15.0,69,0.00,,OVC024,0.00,554.00,VWS V14.00,2013-08-04 20:08:00,
2013-08-04 15:13:00,71.7,61.0,29.97,SSW,209,7.0,17.0,69,0.00,,OVC024,0.00,956.00,VWS V14.00,2013-08-04 20:13:00,
2013-08-04 15:18:00,71.7,61.0,29.97,South,179,7.0,17.0,69,0.00,,OVC024,0.00,914.00,VWS V14.00,2013-08-04 20:18:00,
2013-08-04 15:23:00,72.1,61.0,29.97,South,188,10.0,17.0,68,0.00,,OVC024,0.00,865.00,VWS V14.00,2013-08-04 20:23:00,
2013-08-04 15:28:00,72.3,61.6,29.97,South,177,9.0,17.0,69,0.00,,OVC024,0.00,867.00,VWS V14.00,2013-08-04 20:28:00,
2013-08-04 15:33:00,72.8,61.6,29.97,South,178,15.0,15.0,68,0.00,,OVC024,0.00,942.00,VWS V14.00,2013-08-04 20:33:00,
2013-08-04 15:38:00,72.8,60.8,29.97,SSW,199,6.0,15.0,66,0.00,,OVC024,0.00,343.00,VWS V14.00,2013-08-04 20:38:00,
2013-08-04 15:44:00,72.2,60.7,29.97,SSW,212,3.0,15.0,67,0.00,,OVC024,0.00,443.00,VWS V14.00,2013-08-04 20:44:00,
2013-08-04 15:49:00,71.8,60.7,29.96,SSW,202,7.0,15.0,68,0.00,,OVC024,0.00,441.00,VWS V14.00,2013-08-04 20:49:00,
2013-08-04 15:54:00,72.0,61.3,29.96,SW,228,5.0,15.0,69,0.00,,OVC023,0.00,888.00,VWS V14.00,2013-08-04 20:54:00,
2013-08-04 15:59:00,72.6,61.0,29.96,SSW,200,7.0,15.0,67,0.00,,OVC023,0.00,833.00,VWS V14.00,2013-08-04 20:59:00,
2013-08-04 16:04:00,73.0,61.8,29.95,South,175,7.0,9.0,68,0.00,,OVC023,0.00,835.00,VWS V14.00,2013-08-04 21:04:00,
2013-08-04 16:08:00,72.9,61.7,29.95,SW,221,9.0,12.0,68,0.00,,OVC023,0.00,812.00,VWS V14.00,2013-08-04 21:08:00,
2013-08-04 16:14:00,73.0,61.4,29.95,South,187,6.0,12.0,67,0.00,,OVC023,0.00,636.00,VWS V14.00,2013-08-04 21:14:00,
2013-08-04 16:19:00,73.0,61.8,29.95,South,175,7.0,12.0,68,0.00,,OVC023,0.00,867.00,VWS V14.00,2013-08-04 21:19:00,
2013-08-04 16:24:00,73.5,61.9,29.94,South,182,8.0,12.0,67,0.00,,OVC023,0.00,846.00,VWS V14.00,2013-08-04 21:24:00,
2013-08-04 16:29:00,73.2,61.2,29.94,SSE,158,4.0,12.0,66,0.00,,OVC023,0.00,329.00,VWS V14.00,2013-08-04 21:29:00,
2013-08-04 16:34:00,73.0,61.4,29.94,SE,140,8.0,14.0,67,0.00,,OVC023,0.00,780.00,VWS V14.00,2013-08-04 21:34:00,
2013-08-04 16:39:00,73.5,62.7,29.94,SE,144,6.0,14.0,69,0.00,,OVC023,0.00,796.00,VWS V14.00,2013-08-04 21:39:00,
2013-08-04 16:44:00,73.7,62.1,29.94,SE,138,4.0,14.0,67,0.00,,OVC029,0.00,417.00,VWS V14.00,2013-08-04 21:44:00,
2013-08-04 16:49:00,73.5,61.5,29.94,South,178,4.0,14.0,66,0.00,,OVC029,0.00,285.00,VWS V14.00,2013-08-04 21:49:00,
2013-08-04 16:54:00,73.0,61.4,29.94,SSE,153,3.0,14.0,67,0.00,,OVC029,0.00,306.00,VWS V14.00,2013-08-04 21:54:00,
2013-08-04 16:59:00,73.9,62.3,29.94,SSW,201,9.0,14.0,67,0.00,,OVC029,0.00,795.00,VWS V14.00,2013-08-04 21:59:00,
2013-08-04 17:04:00,74.4,61.4,29.93,SSW,209,5.0,11.0,64,0.00,,OVC029,0.00,229.00,VWS V14.00,2013-08-04 22:04:00,
2013-08-04 17:09:00,73.9,61.8,29.93,SSW,202,6.0,11.0,66,0.00,,OVC029,0.00,798.00,VWS V14.00,2013-08-04 22:09:00,
2013-08-04 17:14:00,74.3,61.8,29.93,SSE,163,6.0,11.0,65,0.00,,OVC029,0.00,294.00,VWS V14.00,2013-08-04 22:14:00,
2013-08-04 17:19:00,73.7,61.7,29.93,South,169,7.0,14.0,66,0.00,,OVC029,0.00,276.00,VWS V14.00,2013-08-04 22:19:00,
2013-08-04 17:24:00,74.0,61.9,29.93,South,184,12.0,14.0,66,0.00,,OVC029,0.00,281.00,VWS V14.00,2013-08-04 22:24:00,
2013-08-04 17:29:00,73.4,61.4,29.93,South,188,5.0,14.0,66,0.00,,OVC029,0.00,202.00,VWS V14.00,2013-08-04 22:29:00,
2013-08-04 17:34:00,73.0,61.8,29.93,South,188,3.0,8.0,68,0.00,,OVC029,0.00,278.00,VWS V14.00,2013-08-04 22:34:00,
2013-08-04 17:39:00,73.5,62.3,29.92,South,185,7.0,12.0,68,0.00,,OVC029,0.00,666.00,VWS V14.00,2013-08-04 22:39:00,
2013-08-04 17:44:00,74.2,62.1,29.92,SSW,192,8.0,12.0,66,0.00,,SCT027,0.00,267.00,VWS V14.00,2013-08-04 22:44:00,
2013-08-04 17:49:00,73.9,62.3,29.92,South,179,9.0,12.0,67,0.00,,SCT027,0.00,295.00,VWS V14.00,2013-08-04 22:49:00,
2013-08-04 17:54:00,73.8,61.7,29.92,South,183,5.0,12.0,66,0.00,,SCT027,0.00,492.00,VWS V14.00,2013-08-04 22:54:00,
2013-08-04 17:59:00,73.6,62.4,29.92,South,171,4.0,12.0,68,0.00,,SCT027,0.00,213.00,VWS V14.00,2013-08-04 22:59:00,
2013-08-04 18:05:00,73.6,62.4,29.91,South,170,5.0,11.0,68,0.00,,SCT027,0.00,295.00,VWS V14.00,2013-08-04 23:05:00,
2013-08-04 18:10:00,73.7,62.1,29.91,SE,146,3.0,11.0,67,0.00,,SCT027,0.00,199.00,VWS V14.00,2013-08-04 23:10:00,
2013-08-04 18:15:00,72.8,62.0,29.91,SSE,148,7.0,12.0,69,0.00,,SCT027,0.00,100.00,VWS V14.00,2013-08-04 23:15:00,
2013-08-04 18:20:00,72.2,61.5,29.90,South,175,7.0,12.0,69,0.00,,SCT027,0.00,123.00,VWS V14.00,2013-08-04 23:20:00,
2013-08-04 18:24:00,72.0,61.7,29.90,SSE,163,9.0,12.0,70,0.00,,SCT027,0.00,113.00,VWS V14.00,2013-08-04 23:24:00,
2013-08-04 18:30:00,71.7,61.8,29.90,SSE,164,8.0,9.0,71,0.00,,SCT027,0.00,81.00,VWS V14.00,2013-08-04 23:30:00,
2013-08-04 18:35:00,71.5,62.0,29.90,SSE,161,8.0,9.0,72,0.00,,SCT027,0.00,62.00,VWS V14.00,2013-08-04 23:35:00,
2013-08-04 18:40:00,71.2,61.7,29.89,SE,141,8.0,11.0,72,0.00,,SCT027,0.00,44.00,VWS V14.00,2013-08-04 23:40:00,
2013-08-04 18:45:00,70.8,61.7,29.90,SE,134,7.0,11.0,73,0.00,,FEW029,0.00,25.00,VWS V14.00,2013-08-04 23:45:00,
2013-08-04 18:50:00,70.6,61.9,29.90,ESE,121,4.0,11.0,74,0.00,,FEW029,0.00,18.00,VWS V14.00,2013-08-04 23:50:00,
2013-08-04 18:55:00,70.4,61.7,29.90,SE,126,4.0,11.0,74,0.00,,FEW029,0.00,14.00,VWS V14.00,2013-08-04 23:55:00,
2013-08-04 19:00:00,70.3,61.6,29.91,SE,128,6.0,6.0,74,0.00,,FEW029,0.00,12.00,VWS V14.00,2013-08-05 00:00:00,
2013-08-04 19:05:00,70.2,61.5,29.92,SSE,155,7.0,8.0,74,0.00,,FEW029,0.00,11.00,VWS V14.00,2013-08-05 00:05:00,
2013-08-04 19:10:00,70.0,61.7,29.91,SSE,158,8.0,9.0,75,0.00,,FEW029,0.00,14.00,VWS V14.00,2013-08-05 00:10:00,
2013-08-04 19:15:00,69.9,62.0,29.92,SSE,158,8.0,9.0,76,0.00,,BKN110,0.00,30.00,VWS V14.00,2013-08-05 00:15:00,
2013-08-04 19:20:00,69.6,61.7,29.91,SSE,161,6.0,9.0,76,0.00,,BKN110,0.00,65.00,VWS V14.00,2013-08-05 00:20:00,
2013-08-04 19:25:00,69.6,62.1,29.91,SSE,160,8.0,10.0,77,0.00,,BKN110,0.00,125.00,VWS V14.00,2013-08-05 00:25:00,
2013-08-04 19:30:00,69.7,61.8,29.91,SE,144,6.0,7.0,76,0.00,,BKN110,0.00,111.00,VWS V14.00,2013-08-05 00:30:00,
2013-08-04 19:36:00,69.7,62.2,29.91,SE,131,4.0,10.0,77,0.00,,BKN110,0.00,81.00,VWS V14.00,2013-08-05 00:36:00,
2013-08-04 19:41:00,69.6,62.1,29.92,SSE,151,8.0,10.0,77,0.00,,BKN110,0.00,56.00,VWS V14.00,2013-08-05 00:41:00,
2013-08-04 19:46:00,69.5,62.0,29.91,SSE,165,7.0,10.0,77,0.00,,BKN110,0.00,77.00,VWS V14.00,2013-08-05 00:46:00,
2013-08-04 19:50:00,69.5,62.0,29.91,SSE,159,6.0,10.0,77,0.00,,-RA,0.00,69.00,VWS V14.00,2013-08-05 00:50:00,
2013-08-04 19:56:00,69.4,62.2,29.91,SSE,163,8.0,11.0,78,0.00,,-RA,0.00,63.00,VWS V14.00,2013-08-05 00:56:00,
2013-08-04 20:01:00,69.3,62.2,29.91,SSE,162,5.0,8.0,78,0.00,,-RA,0.00,65.00,VWS V14.00,2013-08-05 01:01:00,
2013-08-04 20:05:00,69.1,62.0,29.91,SSE,162,9.0,13.0,78,0.00,,-RA,0.00,58.00,VWS V14.00,2013-08-05 01:05:00,
2013-08-04 20:11:00,69.0,62.2,29.91,SSE,159,9.0,13.0,79,0.00,,-RA,0.00,120.00,VWS V14.00,2013-08-05 01:11:00,
2013-08-04 20:16:00,69.0,62.2,29.91,SSE,162,7.0,13.0,79,0.00,,-RA,0.00,93.00,VWS V14.00,2013-08-05 01:16:00,
2013-08-04 20:21:00,69.0,62.2,29.91,SSE,165,9.0,13.0,79,0.00,,-RA,0.00,70.00,VWS V14.00,2013-08-05 01:21:00,
2013-08-04 20:26:00,68.5,62.1,29.91,South,171,11.0,13.0,80,0.00,,-RA,0.00,39.00,VWS V14.00,2013-08-05 01:26:00,
2013-08-04 20:31:00,68.2,62.2,29.91,South,177,10.0,12.0,81,0.00,,-RA,0.00,37.00,VWS V14.00,2013-08-05 01:31:00,
2013-08-04 20:36:00,68.1,62.4,29.91,South,176,7.0,12.0,82,0.00,,-RA,0.00,23.00,VWS V14.00,2013-08-05 01:36:00,
2013-08-04 20:41:00,67.9,62.2,29.91,South,174,6.0,12.0,82,0.00,,BKN040,0.00,19.00,VWS V14.00,2013-08-05 01:41:00,
2013-08-04 20:46:00,67.8,62.1,29.91,South,182,9.0,14.0,82,0.00,,BKN040,0.00,14.00,VWS V14.00,2013-08-05 01:46:00,
2013-08-04 20:51:00,67.7,62.4,29.91,South,187,10.0,14.0,83,0.00,,BKN040,0.00,11.00,VWS V14.00,2013-08-05 01:51:00,
2013-08-04 20:57:00,67.5,62.5,29.91,South,190,7.0,14.0,84,0.00,,BKN040,0.00,7.00,VWS V14.00,2013-08-05 01:57:00,
2013-08-04 21:02:00,67.2,62.2,29.91,South,176,5.0,9.0,84,0.00,,BKN040,0.00,0.00,VWS V14.00,2013-08-05 02:02:00,
2013-08-04 21:07:00,67.0,62.3,29.91,South,177,9.0,12.0,85,0.00,,BKN040,0.00,0.00,VWS V14.00,2013-08-05 02:07:00,
2013-08-04 21:13:00,66.9,62.2,29.90,South,183,10.0,12.0,85,0.00,,BKN040,0.00,0.00,VWS V14.00,2013-08-05 02:13:00,
2013-08-04 21:18:00,66.7,61.7,29.91,South,184,9.0,14.0,84,0.00,,BKN040,0.00,0.00,VWS V14.00,2013-08-05 02:18:00,
2013-08-04 21:23:00,66.5,61.5,29.91,South,186,8.0,14.0,84,0.00,,BKN040,0.00,0.00,VWS V14.00,2013-08-05 02:23:00,
2013-08-04 21:28:00,66.3,61.7,29.91,South,186,6.0,14.0,85,0.00,,BKN040,0.00,0.00,VWS V14.00,2013-08-05 02:28:00,
2013-08-04 21:33:00,66.0,61.7,29.91,South,186,6.0,8.0,86,0.00,,BKN040,0.00,0.00,VWS V14.00,2013-08-05 02:33:00,
2013-08-04 21:38:00,65.9,61.6,29.90,South,186,5.0,8.0,86,0.00,,BKN040,0.00,0.00,VWS V14.00,2013-08-05 02:38:00,
2013-08-04 21:43:00,65.7,61.7,29.91,South,186,4.0,8.0,87,0.00,,BKN110,0.00,0.00,VWS V14.00,2013-08-05 02:43:00,
2013-08-04 21:48:00,65.6,61.3,29.91,South,186,1.0,8.0,86,0.00,,BKN110,0.00,0.00,VWS V14.00,2013-08-05 02:48:00,
2013-08-04 21:53:00,65.5,60.9,29.92,South,186,1.0,8.0,85,0.00,,BKN110,0.00,0.00,VWS V14.00,2013-08-05 02:53:00,
2013-08-04 21:58:00,65.5,60.9,29.92,South,186,2.0,8.0,85,0.00,,BKN110,0.00,0.00,VWS V14.00,2013-08-05 02:58:00,
2013-08-04 22:03:00,65.4,60.8,29.91,South,186,4.0,5.0,85,0.00,,BKN110,0.00,0.00,VWS V14.00,2013-08-05 03:03:00,
2013-08-04 22:08:00,65.2,60.6,29.91,South,186,4.0,7.0,85,0.00,,BKN110,0.00,0.00,VWS V14.00,2013-08-05 03:08:00,
2013-08-04 22:13:00,65.0,60.7,29.91,South,186,5.0,7.0,86,0.00,,BKN110,0.00,0.00,VWS V14.00,2013-08-05 03:13:00,
2013-08-04 22:18:00,64.6,60.3,29.91,South,186,4.0,7.0,86,0.00,,BKN110,0.00,0.00,VWS V14.00,2013-08-05 03:18:00,
2013-08-04 22:23:00,64.2,60.3,29.91,South,186,2.0,7.0,87,0.00,,BKN110,0.00,0.00,VWS V14.00,2013-08-05 03:23:00,
2013-08-04 22:28:00,64.0,60.4,29.91,South,186,4.0,7.0,88,0.00,,BKN110,0.00,0.00,VWS V14.00,2013-08-05 03:28:00,
2013-08-04 22:33:00,63.7,60.1,29.91,South,186,2.0,5.0,88,0.00,,BKN110,0.00,0.00,VWS V14.00,2013-08-05 03:33:00,
2013-08-04 22:39:00,63.3,60.0,29.91,South,186,2.0,5.0,89,0.00,,BKN110,0.00,0.00,VWS V14.00,2013-08-05 03:39:00,
2013-08-04 22:44:00,63.1,60.1,29.91,South,186,2.0,5.0,90,0.00,,SCT110,0.00,0.00,VWS V14.00,2013-08-05 03:44:00,
2013-08-04 22:48:00,63.0,60.0,29.91,South,186,0.0,5.0,90,0.00,,SCT110,0.00,0.00,VWS V14.00,2013-08-05 03:48:00,
2013-08-04 22:54:00,62.8,59.8,29.91,South,186,0.0,5.0,90,0.00,,SCT110,0.00,0.00,VWS V14.00,2013-08-05 03:54:00,
2013-08-04 22:59:00,62.7,60.0,29.91,South,186,1.0,5.0,91,0.00,,SCT110,0.00,0.00,VWS V14.00,2013-08-05 03:59:00,
2013-08-04 23:01:00,62.6,59.6,29.91,South,186,2.0,2.0,90,0.00,,SCT110,0.00,0.00,VWS V14.00,2013-08-05 04:01:00,
2013-08-04 23:02:00,62.6,59.6,29.91,South,186,2.0,3.0,90,0.00,,SCT110,0.00,0.00,VWS V14.00,2013-08-05 04:02:00,
2013-08-04 23:03:00,62.5,59.5,29.91,South,186,1.0,3.0,90,0.00,,SCT110,0.00,0.00,VWS V14.00,2013-08-05 04:03:00,
2013-08-04 23:04:00,62.5,59.8,29.91,South,186,2.0,4.0,91,0.00,,SCT110,0.00,0.00,VWS V14.00,2013-08-05 04:04:00,
2013-08-04 23:09:00,62.3,59.6,29.91,South,186,3.0,5.0,91,0.00,,SCT110,0.00,0.00,VWS V14.00,2013-08-05 04:09:00,
2013-08-04 23:14:00,62.2,59.5,29.91,South,186,4.0,5.0,91,0.00,,SCT110,0.00,0.00,VWS V14.00,2013-08-05 04:14:00,
2013-08-04 23:19:00,62.0,59.3,29.92,South,186,4.0,5.0,91,0.00,,SCT110,0.00,0.00,VWS V14.00,2013-08-05 04:19:00,
2013-08-04 23:24:00,62.0,59.3,29.91,South,186,3.0,5.0,91,0.00,,SCT110,0.00,0.00,VWS V14.00,2013-08-05 04:24:00,
2013-08-04 23:29:00,61.9,59.2,29.90,South,186,4.0,5.0,91,0.00,,SCT110,0.00,0.00,VWS V14.00,2013-08-05 04:29:00,
2013-08-04 23:35:00,62.0,59.3,29.91,South,186,5.0,5.0,91,0.00,,SCT110,0.00,0.00,VWS V14.00,2013-08-05 04:35:00,
2013-08-04 23:40:00,61.9,59.2,29.92,WSW,246,7.0,7.0,91,0.00,,SCT110,0.00,0.00,VWS V14.00,2013-08-05 04:40:00,
2013-08-04 23:45:00,61.9,59.5,29.92,WSW,256,2.0,7.0,92,0.00,,CLR,0.00,0.00,VWS V14.00,2013-08-05 04:45:00,
2013-08-04 23:50:00,61.8,59.5,29.92,West,269,4.0,7.0,92,0.00,,CLR,0.00,0.00,VWS V14.00,2013-08-05 04:50:00,
2013-08-04 23:55:00,61.7,59.4,29.92,West,269,4.0,7.0,92,0.00,,CLR,0.00,0.00,VWS V14.00,2013-08-05 04:55:00,